OBJECT_NAME,OBJECT_ID,EPOCH,MEAN_MOTION,ECCENTRICITY,INCLINATION,RA_OF_ASC_NODE,ARG_OF_PERICENTER,MEAN_ANOMALY,EPHEMERIS_TYPE,CLASSIFICATION_TYPE,NORAD_CAT_ID,ELEMENT_SET_NO,REV_AT_EPOCH,BSTAR,MEAN_MOTION_DOT,MEAN_MOTION_DDOT,RMS,DATA_SOURCE GPS BIIR-2 (PRN 13),1997-035A,2022-06-27T16:57:17.999712,2.00563342,.0058658,55.5140,155.2748,50.9824,218.5473,0,C,24876,178,1,0,0,0,0.405667,GPS-A GPS BIIR-4 (PRN 20),2000-025A,2022-06-27T16:57:17.999712,2.00571860,.0047567,54.0648,78.4423,183.9468,174.4171,0,C,26360,178,1,0,0,0,0.291929,GPS-A GPS BIIR-6 (PRN 22),2000-071A,2022-06-27T16:57:17.999712,2.00559544,.0136555,55.0974,152.2631,254.4455,232.9340,0,C,26605,178,1,0,0,0,0.410398,GPS-A GPS BIIR-8 (PRN 16),2003-005A,2022-06-27T16:57:17.999712,2.00564345,.0125471,55.5032,272.6561,41.1508,297.0229,0,C,27663,178,1,0,0,0,0.275161,GPS-A GPS BIIR-9 (PRN 21),2003-010A,2022-06-27T16:57:17.999712,2.00556940,.0244524,55.0290,22.8902,306.3848,248.2187,0,C,27704,178,1,0,0,0,0.322685,GPS-A GPS BIIR-11 (PRN 19),2004-009A,2022-06-27T16:57:17.999712,2.00560678,.0090691,55.9989,333.6393,121.1868,12.5626,0,C,28190,178,1,0,0,0,0.301606,GPS-A GPS BIIR-13 (PRN 02),2004-045A,2022-06-27T16:57:17.999712,2.00562526,.0206105,55.3559,23.0312,279.1298,124.4838,0,C,28474,178,1,0,0,0,0.308524,GPS-A GPS BIIRM-1 (PRN 17),2005-038A,2022-06-27T16:57:17.999712,2.00576240,.0137433,56.0644,331.0745,274.4277,241.9642,0,C,28874,178,1,0,0,0,0.288993,GPS-A GPS BIIRM-2 (PRN 31),2006-042A,2022-06-27T16:57:17.999712,2.00552992,.0103438,54.7163,208.8657,21.5744,50.6139,0,C,29486,178,1,0,0,0,0.421170,GPS-A GPS BIIRM-3 (PRN 12),2006-052A,2022-06-27T16:57:17.999712,2.00551967,.0083653,55.5102,271.5943,74.6108,41.4604,0,C,29601,178,1,0,0,0,0.274820,GPS-A GPS BIIRM-4 (PRN 15),2007-047A,2022-06-27T16:57:17.999712,2.00574514,.0139852,53.3179,140.1209,62.4819,186.3962,0,C,32260,178,1,0,0,0,0.439604,GPS-A GPS BIIRM-5 (PRN 29),2007-062A,2022-06-27T16:57:17.999712,2.00563158,.0020801,56.1838,331.8369,137.7547,240.6386,0,C,32384,178,1,0,0,0,0.289046,GPS-A GPS BIIRM-6 (PRN 07),2008-012A,2022-06-27T16:57:17.999712,2.00565569,.016442,54.4765,207.7988,231.1656,77.0980,0,C,32711,178,1,0,0,0,0.426992,GPS-A GPS BIIRM-8 (PRN 05),2009-043A,2022-06-27T16:57:17.999712,2.00555672,.00588,55.0769,85.1149,58.9772,266.7503,0,C,35752,178,1,0,0,0,0.279192,GPS-A GPS BIIF-1 (PRN 25),2010-022A,2022-06-27T16:57:17.999712,2.00566113,.0102775,54.7940,267.1061,57.0081,26.1531,0,C,36585,178,1,0,0,0,0.297868,GPS-A GPS BIIF-2 (PRN 01),2011-036A,2022-06-27T16:57:17.999712,2.00565850,.0118131,56.6116,28.3036,52.2557,115.7482,0,C,37753,178,1,0,0,0,0.280195,GPS-A GPS BIIF-3 (PRN 24),2012-053A,2022-06-27T16:57:17.999712,2.00562118,.0123956,53.5317,202.9302,46.1851,134.2325,0,C,38833,178,1,0,0,0,0.446634,GPS-A GPS BIIF-4 (PRN 27),2013-023A,2022-06-27T16:57:17.999712,2.00566193,.010398,55.6911,327.4433,38.5026,243.7600,0,C,39166,178,1,0,0,0,0.296212,GPS-A GPS BIIF-5 (PRN 30),2014-008A,2022-06-27T16:57:17.999712,2.00554220,.0060336,53.6252,208.4374,209.0270,72.5245,0,C,39533,178,1,0,0,0,0.446110,GPS-A GPS BIIF-6 (PRN 06),2014-026A,2022-06-27T16:57:17.999712,2.00555594,.0026606,56.5730,27.8293,307.6699,131.3169,0,C,39741,178,1,0,0,0,0.281743,GPS-A GPS BIIF-7 (PRN 09),2014-045A,2022-06-27T16:57:17.999712,2.00548230,.0019685,54.6957,146.3960,111.4296,268.9027,0,C,40105,178,1,0,0,0,0.414155,GPS-A GPS BIIF-8 (PRN 03),2014-068A,2022-06-27T16:57:17.999712,2.00572592,.0041423,55.8208,87.5304,54.7350,53.3999,0,C,40294,178,1,0,0,0,0.268631,GPS-A GPS BIIF-9 (PRN 26),2015-013A,2022-06-27T16:57:17.999712,2.00552200,.00687,53.6952,264.2724,20.4970,347.5455,0,C,40534,178,1,0,0,0,0.328890,GPS-A GPS BIIF-10 (PRN 08),2015-033A,2022-06-27T16:57:17.999712,2.00551508,.007412,55.1892,326.2678,8.2890,240.5784,0,C,40730,178,1,0,0,0,0.306676,GPS-A GPS BIIF-11 (PRN 10),2015-062A,2022-06-27T16:57:17.999712,2.00563186,.0077905,55.8095,87.3733,218.0953,358.5042,0,C,41019,178,1,0,0,0,0.272734,GPS-A GPS BIIF-12 (PRN 32),2016-007A,2022-06-27T16:57:17.999712,2.00570548,.0062091,54.9128,147.0704,230.7981,280.1452,0,C,41328,178,1,0,0,0,0.410248,GPS-A GPS BIII-1 (PRN 04),2018-109A,2022-06-27T16:57:17.999712,2.00572349,.0019124,55.0931,149.4913,196.4117,210.5785,0,C,43873,178,1,0,0,0,0.409793,GPS-A GPS BIII-2 (PRN 18),2019-056A,2022-06-27T16:57:17.999712,2.00557659,.0024502,55.6844,28.6394,177.7087,130.5897,0,C,44506,178,1,0,0,0,0.298312,GPS-A GPS BIII-3 (PRN 23),2020-041A,2022-06-27T16:57:17.999712,2.00559346,.002261,55.5278,85.9107,177.0640,67.4513,0,C,45854,178,1,0,0,0,0.272592,GPS-A GPS BIII-4 (PRN 14),2020-078A,2022-06-27T16:57:17.999712,2.00565399,.0020747,54.5585,269.6816,187.5238,32.2309,0,C,46826,178,1,0,0,0,0.295820,GPS-A GPS BIII-5 (PRN 11),2021-054A,2022-06-27T16:57:17.999712,2.00573377,.0004792,55.1902,30.6344,190.2257,213.3127,0,C,48859,178,1,0,0,0,0.305374,GPS-A